,,,PA_Meas_PMT16A,,PR_Meas_QMR101_102,,RH_Meas_QMH101,,SR_Meas_QMS101,,TA_Meas_QMH101,,GenWind,,GenWind,
date,time,status,PA,status,PR,status,RH,status,SR,status,TA,status,DirAvg,status,SpdAvg,
2011-09-26, 00:00:05,VALID,999.717,VALID,0,VALID,77.2041,VALID,0,VALID,25.2841,VALID,179,VALID,3.19609,
2011-09-26, 00:01:05,VALID,999.705,VALID,0,VALID,75.8003,VALID,0,VALID,25.616,VALID,176,VALID,2.68906,
2011-09-26, 00:02:05,VALID,999.71,VALID,0,VALID,74.6863,VALID,0,VALID,25.9284,VALID,167,VALID,2.53125,
2011-09-26, 00:03:05,VALID,999.703,VALID,0,VALID,73.7861,VALID,0,VALID,26.026,VALID,174,VALID,3.05898,
2011-09-26, 00:04:05,VALID,999.701,VALID,0,VALID,73.4656,VALID,0,VALID,26.0631,VALID,187,VALID,3.01563,
2011-09-26, 00:05:05,VALID,999.65,VALID,0,VALID,72.5958,VALID,0,VALID,26.1803,VALID,172,VALID,3.02813,
2011-09-26, 00:06:05,VALID,999.645,VALID,0,VALID,72.0694,VALID,0,VALID,26.2799,VALID,166,VALID,3.45273,
2011-09-26, 00:07:05,VALID,999.684,VALID,0,VALID,71.9626,VALID,0,VALID,26.317,VALID,179,VALID,2.79883,
2011-09-26, 00:08:05,VALID,999.656,VALID,0,VALID,71.9855,VALID,0,VALID,26.356,VALID,179,VALID,2.69727,
2011-09-26, 00:09:05,VALID,999.64,VALID,0,VALID,72.0236,VALID,0,VALID,26.3365,VALID,174,VALID,1.92969,
2011-09-26, 00:10:05,VALID,999.657,VALID,0,VALID,71.9855,VALID,0,VALID,26.3365,VALID,193,VALID,2.03398,
2011-09-26, 00:11:05,VALID,999.635,VALID,0,VALID,72.0084,VALID,0,VALID,26.3951,VALID,183,VALID,1.61875,
2011-09-26, 00:12:05,VALID,999.614,VALID,0,VALID,71.9778,VALID,0,VALID,26.3951,VALID,170,VALID,2.15742,
2011-09-26, 00:13:05,VALID,999.578,VALID,0,VALID,71.8252,VALID,0,VALID,26.3365,VALID,183,VALID,1.93945,
2011-09-26, 00:14:05,VALID,999.584,VALID,0,VALID,71.0012,VALID,0,VALID,26.3951,VALID,191,VALID,2.18711,
2011-09-26, 00:15:05,VALID,999.577,VALID,0,VALID,70.986,VALID,0,VALID,26.4927,VALID,175,VALID,2.56094,
2011-09-26, 00:16:05,VALID,999.585,VALID,0,VALID,71.0165,VALID,0,VALID,26.5123,VALID,172,VALID,2.49336,
2011-09-26, 00:17:05,VALID,999.588,VALID,0,VALID,70.7418,VALID,0,VALID,26.5513,VALID,186,VALID,2.31562,
2011-09-26, 00:18:05,VALID,999.573,VALID,0,VALID,70.6198,VALID,0,VALID,26.5708,VALID,191,VALID,2.10078,
2011-09-26, 00:19:05,VALID,999.541,VALID,0,VALID,70.0704,VALID,0,VALID,26.5708,VALID,178,VALID,2.85,
2011-09-26, 00:20:05,VALID,999.527,VALID,0,VALID,70.162,VALID,0,VALID,26.5904,VALID,191,VALID,2.93516,
2011-09-26, 00:21:05,VALID,999.509,VALID,0,VALID,70.1925,VALID,0,VALID,26.5904,VALID,179,VALID,2.37461,
2011-09-26, 00:22:05,VALID,999.425,VALID,0,VALID,69.9865,VALID,0,VALID,26.6119,VALID,199,VALID,2.59102,
2011-09-26, 00:23:05,VALID,999.428,VALID,0,VALID,70.0247,VALID,0,VALID,26.6294,VALID,184,VALID,2.87188,
2011-09-26, 00:24:05,VALID,999.386,VALID,0,VALID,70.2459,VALID,0,VALID,26.649,VALID,186,VALID,2.29609,
2011-09-26, 00:25:05,VALID,999.365,VALID,0,VALID,69.7576,VALID,0,VALID,26.6685,VALID,179,VALID,2.32773,
2011-09-26, 00:26:05,VALID,999.368,VALID,0,VALID,70.223,VALID,0,VALID,26.6294,VALID,171,VALID,2.56758,
2011-09-26, 00:27:05,VALID,999.347,VALID,0,VALID,70.5664,VALID,0,VALID,26.5513,VALID,188,VALID,2.52773,
2011-09-26, 00:28:05,VALID,999.361,VALID,0,VALID,70.4214,VALID,0,VALID,26.5513,VALID,183,VALID,2.20625,
2011-09-26, 00:29:05,VALID,999.346,VALID,0,VALID,70.78,VALID,0,VALID,26.5318,VALID,184,VALID,1.75469,
2011-09-26, 00:30:05,VALID,999.301,VALID,0,VALID,70.5206,VALID,0,VALID,26.5513,VALID,177,VALID,1.78164,
2011-09-26, 00:31:05,VALID,999.324,VALID,0,VALID,70.7266,VALID,0,VALID,26.5123,VALID,185,VALID,1.56055,
2011-09-26, 00:32:05,VALID,999.279,VALID,0,VALID,70.5129,VALID,0,VALID,26.5318,VALID,171,VALID,2.28047,
2011-09-26, 00:33:05,VALID,999.311,VALID,0,VALID,70.4214,VALID,0,VALID,26.5318,VALID,184,VALID,2.54453,
2011-09-26, 00:34:05,VALID,999.281,VALID,0,VALID,70.1925,VALID,0,VALID,26.5513,VALID,171,VALID,2.68711,
2011-09-26, 00:35:05,VALID,999.253,VALID,0,VALID,70.2993,VALID,0,VALID,26.5513,VALID,188,VALID,2.62617,
2011-09-26, 00:36:05,VALID,999.251,VALID,0,VALID,70.5358,VALID,0,VALID,26.5513,VALID,187,VALID,2.53516,
2011-09-26, 00:37:05,VALID,999.227,VALID,0,VALID,70.1238,VALID,0,VALID,26.5513,VALID,173,VALID,2.55117,
2011-09-26, 00:38:05,VALID,999.225,VALID,0,VALID,69.6584,VALID,0,VALID,26.5904,VALID,189,VALID,3.49453,
2011-09-26, 00:39:05,VALID,999.249,VALID,0,VALID,69.6355,VALID,0,VALID,26.6315,VALID,184,VALID,2.94062,
2011-09-26, 00:40:05,VALID,999.242,VALID,0,VALID,69.7347,VALID,0,VALID,26.6099,VALID,178,VALID,2.93438,
2011-09-26, 00:41:05,VALID,999.228,VALID,0,VALID,71.5658,VALID,0,VALID,26.5708,VALID,159,VALID,3.78203,
2011-09-26, 00:42:05,VALID,999.228,VALID,0,VALID,74.8313,VALID,0,VALID,26.2584,VALID,92,VALID,1.94219,
2011-09-26, 00:43:05,VALID,999.222,VALID,0,VALID,77.2575,VALID,0,VALID,25.8679,VALID,103,VALID,2.03437,
2011-09-26, 00:44:05,VALID,999.192,VALID,0,VALID,78.7835,VALID,0,VALID,25.5164,VALID,131,VALID,0.506641,
2011-09-26, 00:45:05,VALID,999.184,VALID,0,VALID,79.7753,VALID,0,VALID,25.3212,VALID,128,VALID,0.669531,
2011-09-26, 00:46:05,VALID,999.211,VALID,0,VALID,80.1568,VALID,0,VALID,25.1845,VALID,112,VALID,1.03047,
2011-09-26, 00:47:05,VALID,999.189,VALID,0,VALID,79.8821,VALID,0,VALID,25.0479,VALID,130,VALID,0.956641,
2011-09-26, 00:48:05,VALID,999.156,VALID,0,VALID,80.0271,VALID,0,VALID,25.0498,VALID,148,VALID,0.875391,
2011-09-26, 00:49:05,VALID,999.144,VALID,0,VALID,79.3023,VALID,0,VALID,25.0284,VALID,148,VALID,0.93125,
2011-09-26, 00:50:05,VALID,999.123,VALID,0,VALID,79.4854,VALID,0,VALID,25.1064,VALID,134,VALID,1.15039,
2011-09-26, 00:51:05,VALID,999.12,VALID,0,VALID,79.7143,VALID,0,VALID,25.126,VALID,112,VALID,1.13789,
2011-09-26, 00:52:05,VALID,999.084,VALID,0,VALID,80.3704,VALID,0,VALID,25.1064,VALID,108,VALID,1.23672,
2011-09-26, 00:53:05,VALID,999.08,VALID,0,VALID,80.8206,VALID,0,VALID,24.9893,VALID,116,VALID,1.32305,
2011-09-26, 00:54:05,VALID,999.087,VALID,0,VALID,81.7438,VALID,0,VALID,24.9112,VALID,100,VALID,1.1707,
2011-09-26, 00:55:05,VALID,999.038,VALID,0,VALID,82.4228,VALID,0,VALID,24.8332,VALID,102,VALID,0.857813,
2011-09-26, 00:56:05,VALID,999.057,VALID,0,VALID,82.8577,VALID,0,VALID,24.7356,VALID,102,VALID,0.3125,
2011-09-26, 00:57:05,VALID,999.032,VALID,0,VALID,83.0484,VALID,0,VALID,24.6556,VALID,102,VALID,0.00234375,
2011-09-26, 00:58:05,VALID,998.955,VALID,0,VALID,83.3231,VALID,0,VALID,24.5775,VALID,73,VALID,0.799219,
2011-09-26, 00:59:05,VALID,998.977,VALID,0,VALID,83.5596,VALID,0,VALID,24.519,VALID,76,VALID,0.0363281,
2011-09-26, 01:00:05,VALID,998.967,VALID,0,VALID,83.6664,VALID,0,VALID,24.4604,VALID,76,VALID,0,
2011-09-26, 01:01:05,VALID,998.955,VALID,0,VALID,83.8266,VALID,0,VALID,24.4214,VALID,76,VALID,0.278906,
2011-09-26, 01:02:05,VALID,998.931,VALID,0,VALID,83.9106,VALID,0,VALID,24.3824,VALID,98,VALID,0.397656,
2011-09-26, 01:03:05,VALID,998.941,VALID,0,VALID,83.9029,VALID,0,VALID,24.3629,VALID,89,VALID,0.439844,
2011-09-26, 01:04:05,VALID,998.904,VALID,0,VALID,82.9874,VALID,0.112286,VALID,24.3629,VALID,231,VALID,0.746484,
2011-09-26, 01:05:05,VALID,998.905,VALID,0,VALID,80.1339,VALID,0,VALID,24.5385,VALID,178,VALID,2.23359,
2011-09-26, 01:06:05,VALID,998.875,VALID,0,VALID,78.2418,VALID,0,VALID,25.0069,VALID,146,VALID,2.11211,
2011-09-26, 01:07:05,VALID,998.888,VALID,0,VALID,79.0429,VALID,0,VALID,25.2607,VALID,100,VALID,1.4543,
2011-09-26, 01:08:05,VALID,998.886,VALID,0,VALID,79.9737,VALID,0,VALID,25.204,VALID,93,VALID,0.85625,
2011-09-26, 01:09:05,VALID,998.885,VALID,0,VALID,80.7595,VALID,0,VALID,25.0869,VALID,74,VALID,0.358203,
2011-09-26, 01:10:05,VALID,998.897,VALID,0,VALID,81.1792,VALID,0,VALID,24.9093,VALID,198,VALID,0.504687,
2011-09-26, 01:11:05,VALID,998.883,VALID,0,VALID,81.3775,VALID,0,VALID,24.8313,VALID,143,VALID,0.604688,
2011-09-26, 01:12:05,VALID,998.88,VALID,0,VALID,78.4706,VALID,0,VALID,24.8117,VALID,170,VALID,3.21758,
2011-09-26, 01:13:05,VALID,998.83,VALID,0,VALID,75.8461,VALID,0.112286,VALID,25.1826,VALID,162,VALID,2.68398,
2011-09-26, 01:14:05,VALID,998.809,VALID,0,VALID,73.7174,VALID,0,VALID,25.6531,VALID,197,VALID,2.73359,
2011-09-26, 01:15:05,VALID,998.786,VALID,0,VALID,71.9168,VALID,0,VALID,26.0026,VALID,160,VALID,3.44102,
2011-09-26, 01:16:05,VALID,998.771,VALID,0,VALID,71.0165,VALID,0,VALID,26.1783,VALID,174,VALID,3.03047,
2011-09-26, 01:17:05,VALID,998.757,VALID,0,VALID,70.7418,VALID,0,VALID,26.315,VALID,177,VALID,2.04336,
2011-09-26, 01:18:05,VALID,998.776,VALID,0,VALID,71.2378,VALID,0,VALID,26.2954,VALID,155,VALID,2.46563,
2011-09-26, 01:19:05,VALID,998.766,VALID,0,VALID,70.5587,VALID,0,VALID,26.2369,VALID,170,VALID,3.19609,
2011-09-26, 01:20:05,VALID,998.737,VALID,0,VALID,69.6279,VALID,0,VALID,26.3931,VALID,175,VALID,4.00547,
2011-09-26, 01:21:05,VALID,998.721,VALID,0,VALID,68.575,VALID,0,VALID,26.5884,VALID,191,VALID,3.43047,
2011-09-26, 01:22:05,VALID,998.762,VALID,0,VALID,68.9718,VALID,0,VALID,26.6469,VALID,165,VALID,3.33867,
2011-09-26, 01:23:05,VALID,998.769,VALID,0,VALID,69.0023,VALID,0,VALID,26.6079,VALID,184,VALID,2.28242,
2011-09-26, 01:24:05,VALID,998.746,VALID,0,VALID,68.369,VALID,0,VALID,26.6665,VALID,180,VALID,3.03867,
2011-09-26, 01:25:05,VALID,998.729,VALID,0,VALID,68.4911,VALID,0,VALID,26.686,VALID,155,VALID,3.24023,
2011-09-26, 01:26:05,VALID,998.683,VALID,0,VALID,68.8573,VALID,0,VALID,26.6469,VALID,170,VALID,2.96758,
2011-09-26, 01:27:05,VALID,998.71,VALID,0,VALID,68.659,VALID,0,VALID,26.6079,VALID,196,VALID,2.55273,
2011-09-26, 01:28:05,VALID,998.703,VALID,0,VALID,68.0486,VALID,0.112286,VALID,26.6665,VALID,173,VALID,3.52539,
2011-09-26, 01:29:05,VALID,998.715,VALID,0,VALID,67.9494,VALID,0,VALID,26.7661,VALID,179,VALID,3.57031,
2011-09-26, 01:30:05,VALID,998.721,VALID,0,VALID,67.278,VALID,0,VALID,26.7836,VALID,185,VALID,4.10977,
2011-09-26, 01:31:05,VALID,998.729,VALID,0,VALID,67.5984,VALID,0,VALID,26.7836,VALID,168,VALID,3.58398,
2011-09-26, 01:32:05,VALID,998.64,VALID,0,VALID,67.4458,VALID,0,VALID,26.7836,VALID,180,VALID,3.07734,
2011-09-26, 01:33:05,VALID,998.629,VALID,0,VALID,67.7663,VALID,0,VALID,26.7641,VALID,167,VALID,3.12344,
2011-09-26, 01:34:05,VALID,998.591,VALID,0,VALID,67.339,VALID,0,VALID,26.7836,VALID,169,VALID,3.69844,
2011-09-26, 01:35:05,VALID,998.597,VALID,0,VALID,66.8431,VALID,0,VALID,26.8638,VALID,175,VALID,4.55977,
2011-09-26, 01:36:05,VALID,998.566,VALID,0,VALID,67.9723,VALID,0,VALID,26.8422,VALID,171,VALID,3.64922,
2011-09-26, 01:37:05,VALID,998.643,VALID,0,VALID,69.2998,VALID,0.112286,VALID,26.7035,VALID,159,VALID,3.16367,
2011-09-26, 01:38:05,VALID,998.629,VALID,0,VALID,72.3822,VALID,0.112286,VALID,26.3931,VALID,127,VALID,1.7043,
2011-09-26, 01:39:04,VALID,998.658,VALID,0,VALID,74.961,VALID,0,VALID,25.9225,VALID,115,VALID,2.70352,
2011-09-26, 01:40:04,VALID,998.68,VALID,0,VALID,76.3267,VALID,0,VALID,25.575,VALID,116,VALID,2.0918,
2011-09-26, 01:41:04,VALID,998.65,VALID,0,VALID,77.5856,VALID,0,VALID,25.3602,VALID,113,VALID,1.38281,
2011-09-26, 01:42:04,VALID,998.63,VALID,0,VALID,78.9361,VALID,0,VALID,25.165,VALID,131,VALID,1.65273,
2011-09-26, 01:43:04,VALID,998.64,VALID,0,VALID,79.3099,VALID,0,VALID,25.0674,VALID,120,VALID,1.55625,
2011-09-26, 01:44:04,VALID,998.626,VALID,0,VALID,80.3399,VALID,0,VALID,24.9503,VALID,113,VALID,1.50508,
2011-09-26, 01:45:04,VALID,998.619,VALID,0,VALID,79.6532,VALID,0,VALID,24.9503,VALID,108,VALID,2.40156,
2011-09-26, 01:46:04,VALID,998.611,VALID,0,VALID,80.7366,VALID,0,VALID,24.9308,VALID,116,VALID,1.90898,
2011-09-26, 01:47:04,VALID,998.618,VALID,0,VALID,81.6598,VALID,0,VALID,24.8136,VALID,117,VALID,1.27109,
2011-09-26, 01:48:04,VALID,998.616,VALID,0,VALID,82.438,VALID,0,VALID,24.716,VALID,115,VALID,1.5332,
2011-09-26, 01:49:04,VALID,998.557,VALID,0,VALID,82.9492,VALID,0,VALID,24.5989,VALID,114,VALID,1.49805,
2011-09-26, 01:50:04,VALID,998.52,VALID,0,VALID,83.1934,VALID,0,VALID,24.5013,VALID,109,VALID,1.5418,
2011-09-26, 01:51:04,VALID,998.53,VALID,0,VALID,83.5901,VALID,0,VALID,24.4428,VALID,108,VALID,1.36797,
2011-09-26, 01:52:04,VALID,998.512,VALID,0,VALID,81.7743,VALID,0,VALID,24.4623,VALID,134,VALID,1.7918,
2011-09-26, 01:53:04,VALID,998.515,VALID,0,VALID,82.0871,VALID,0,VALID,24.5422,VALID,156,VALID,2.17148,
2011-09-26, 01:54:04,VALID,998.452,VALID,0,VALID,80.8587,VALID,0,VALID,24.5989,VALID,125,VALID,2.08594,
2011-09-26, 01:55:04,VALID,998.434,VALID,0,VALID,79.9889,VALID,0,VALID,24.6946,VALID,139,VALID,2.41836,
2011-09-26, 01:56:04,VALID,998.436,VALID,0,VALID,79.699,VALID,0,VALID,24.7727,VALID,143,VALID,1.99219,
2011-09-26, 01:57:04,VALID,998.443,VALID,0,VALID,78.1121,VALID,0,VALID,24.9112,VALID,148,VALID,2.53906,
2011-09-26, 01:58:04,VALID,998.39,VALID,0,VALID,76.6853,VALID,0,VALID,25.0869,VALID,138,VALID,2.30469,
2011-09-26, 01:59:04,VALID,998.426,VALID,0,VALID,76.2428,VALID,0,VALID,25.2431,VALID,141,VALID,2.53906,
2011-09-26, 02:00:04,VALID,998.436,VALID,0,VALID,75.1136,VALID,0,VALID,25.3797,VALID,150,VALID,2.37188,
2011-09-26, 02:01:04,VALID,998.419,VALID,0,VALID,75.0221,VALID,0,VALID,25.4559,VALID,166,VALID,1.85156,
2011-09-26, 02:02:04,VALID,998.374,VALID,0,VALID,73.9234,VALID,0,VALID,25.4559,VALID,130,VALID,2.2082,
2011-09-26, 02:03:04,VALID,998.393,VALID,0,VALID,75.0755,VALID,0,VALID,25.4969,VALID,132,VALID,1.83945,
2011-09-26, 02:04:04,VALID,998.357,VALID,0,VALID,75.724,VALID,0,VALID,25.3778,VALID,124,VALID,1.83359,
2011-09-26, 02:05:04,VALID,998.353,VALID,0,VALID,76.2275,VALID,0,VALID,25.2626,VALID,130,VALID,2.29219,
2011-09-26, 02:06:04,VALID,998.355,VALID,0,VALID,77.0592,VALID,0,VALID,25.165,VALID,126,VALID,1.60977,
2011-09-26, 02:07:04,VALID,998.369,VALID,0,VALID,78.0892,VALID,0,VALID,25.0479,VALID,119,VALID,1.81211,
2011-09-26, 02:08:04,VALID,998.362,VALID,0,VALID,79.1955,VALID,0,VALID,24.9503,VALID,125,VALID,2.37031,
2011-09-26, 02:09:04,VALID,998.368,VALID,0,VALID,79.9432,VALID,0,VALID,24.8527,VALID,118,VALID,1.48398,
2011-09-26, 02:10:04,VALID,998.416,VALID,0,VALID,80.5154,VALID,0,VALID,24.7746,VALID,138,VALID,2.26797,
2011-09-26, 02:11:04,VALID,998.387,VALID,0,VALID,79.6914,VALID,0,VALID,24.7941,VALID,136,VALID,1.46367,
2011-09-26, 02:12:04,VALID,998.404,VALID,0,VALID,79.966,VALID,0,VALID,24.7941,VALID,171,VALID,1.32461,
2011-09-26, 02:13:04,VALID,998.37,VALID,0,VALID,79.8745,VALID,0,VALID,24.7337,VALID,160,VALID,1.39297,
2011-09-26, 02:14:04,VALID,998.334,VALID,0,VALID,78.0129,VALID,0,VALID,24.8117,VALID,138,VALID,2.39141,
2011-09-26, 02:15:04,VALID,998.353,VALID,0,VALID,78.0358,VALID,0,VALID,24.9503,VALID,122,VALID,2.39023,
2011-09-26, 02:16:04,VALID,998.335,VALID,0,VALID,78.2418,VALID,0,VALID,24.9698,VALID,125,VALID,2.61875,
2011-09-26, 02:17:04,VALID,998.308,VALID,0,VALID,78.5088,VALID,0,VALID,24.9289,VALID,140,VALID,3.14492,
2011-09-26, 02:18:04,VALID,998.317,VALID,0,VALID,79.2031,VALID,0,VALID,24.9112,VALID,121,VALID,1.71211,
2011-09-26, 02:19:04,VALID,998.335,VALID,0,VALID,79.9279,VALID,0,VALID,24.8117,VALID,129,VALID,2.11992,
2011-09-26, 02:20:04,VALID,998.373,VALID,0,VALID,80.7138,VALID,0,VALID,24.716,VALID,129,VALID,2.31875,
2011-09-26, 02:21:04,VALID,998.33,VALID,0,VALID,81.2555,VALID,0,VALID,24.5971,VALID,120,VALID,1.84883,
2011-09-26, 02:22:04,VALID,998.318,VALID,0,VALID,82.2549,VALID,0,VALID,24.519,VALID,121,VALID,1.41953,
2011-09-26, 02:23:04,VALID,998.351,VALID,0,VALID,83.056,VALID,0,VALID,24.4428,VALID,129,VALID,1.51992,
2011-09-26, 02:24:04,VALID,998.375,VALID,0,VALID,83.5443,VALID,0,VALID,24.3238,VALID,119,VALID,0.881641,
2011-09-26, 02:25:04,VALID,998.365,VALID,0,VALID,83.9716,VALID,0,VALID,24.2495,VALID,140,VALID,0.826953,
2011-09-26, 02:26:04,VALID,998.341,VALID,0,VALID,84.231,VALID,0,VALID,24.1696,VALID,137,VALID,0.308984,
2011-09-26, 02:27:04,VALID,998.348,VALID,0,VALID,84.6277,VALID,0,VALID,24.111,VALID,137,VALID,0.600781,
2011-09-26, 02:28:04,VALID,998.356,VALID,0,VALID,84.7803,VALID,0,VALID,24.072,VALID,137,VALID,0.26875,
2011-09-26, 02:29:04,VALID,998.389,VALID,0,VALID,84.8948,VALID,0,VALID,24.0329,VALID,137,VALID,0.625391,
2011-09-26, 02:30:04,VALID,998.396,VALID,0,VALID,85.0626,VALID,0,VALID,24.0348,VALID,137,VALID,0.298828,
2011-09-26, 02:31:04,VALID,998.398,VALID,0,VALID,85.2305,VALID,0,VALID,23.9957,VALID,137,VALID,0.411328,
2011-09-26, 02:32:04,VALID,998.363,VALID,0,VALID,85.4212,VALID,0,VALID,23.9159,VALID,137,VALID,0.19375,
2011-09-26, 02:33:04,VALID,998.385,VALID,0,VALID,85.5509,VALID,0,VALID,23.9177,VALID,133,VALID,0.926953,
2011-09-26, 02:34:04,VALID,998.39,VALID,0,VALID,84.9253,VALID,0,VALID,23.9372,VALID,122,VALID,1.54453,
2011-09-26, 02:35:04,VALID,998.402,VALID,0,VALID,84.7193,VALID,0,VALID,23.9957,VALID,113,VALID,1.2582,
2011-09-26, 02:36:04,VALID,998.407,VALID,0,VALID,84.7498,VALID,0,VALID,23.9939,VALID,113,VALID,1.27148,
2011-09-26, 02:37:04,VALID,998.448,VALID,0,VALID,85.0703,VALID,0,VALID,23.9744,VALID,110,VALID,1.81641,
2011-09-26, 02:38:04,VALID,998.449,VALID,0,VALID,85.4441,VALID,0,VALID,23.9567,VALID,117,VALID,1.25312,
2011-09-26, 02:39:04,VALID,998.453,VALID,0,VALID,85.6883,VALID,0,VALID,23.9159,VALID,112,VALID,1.07305,
2011-09-26, 02:40:04,VALID,998.43,VALID,0,VALID,85.9629,VALID,0,VALID,23.8982,VALID,112,VALID,0.679297,
2011-09-26, 02:41:04,VALID,998.44,VALID,0,VALID,86.024,VALID,0,VALID,23.8591,VALID,107,VALID,1.04062,
2011-09-26, 02:42:04,VALID,998.438,VALID,0,VALID,85.9629,VALID,0,VALID,23.8183,VALID,100,VALID,0.654297,
2011-09-26, 02:43:04,VALID,998.455,VALID,0,VALID,85.261,VALID,0,VALID,23.8786,VALID,134,VALID,1.36445,
2011-09-26, 02:44:04,VALID,998.432,VALID,0,VALID,84.5133,VALID,0,VALID,23.9567,VALID,122,VALID,1.28242,
2011-09-26, 02:45:04,VALID,998.45,VALID,0,VALID,84.2539,VALID,0,VALID,24.0348,VALID,100,VALID,1.07539,
2011-09-26, 02:46:04,VALID,998.467,VALID,0,VALID,84.1395,VALID,0,VALID,24.0525,VALID,100,VALID,0.884766,
2011-09-26, 02:47:04,VALID,998.489,VALID,0,VALID,84.0937,VALID,0,VALID,24.072,VALID,110,VALID,0.830078,
2011-09-26, 02:48:04,VALID,998.505,VALID,0,VALID,84.17,VALID,0,VALID,24.0134,VALID,112,VALID,0.944922,
2011-09-26, 02:49:04,VALID,998.509,VALID,0,VALID,84.3378,VALID,0,VALID,23.9744,VALID,130,VALID,0.519531,
2011-09-26, 02:50:04,VALID,998.557,VALID,0,VALID,84.5515,VALID,0,VALID,23.9354,VALID,178,VALID,0.939844,
2011-09-26, 02:51:04,VALID,998.536,VALID,0,VALID,84.7346,VALID,0,VALID,23.9567,VALID,163,VALID,0.616797,
2011-09-26, 02:52:04,VALID,998.572,VALID,0,VALID,84.9863,VALID,0,VALID,23.9354,VALID,130,VALID,1.28672,
2011-09-26, 02:53:04,VALID,998.552,VALID,0,VALID,85.2686,VALID,0,VALID,23.9372,VALID,123,VALID,1.28984,
2011-09-26, 02:54:04,VALID,998.545,VALID,0,VALID,85.406,VALID,0,VALID,23.8963,VALID,113,VALID,1.06797,
2011-09-26, 02:55:04,VALID,998.546,VALID,0,VALID,85.3678,VALID,0,VALID,23.9159,VALID,113,VALID,0.770703,
2011-09-26, 02:56:04,VALID,998.564,VALID,0,VALID,85.2763,VALID,0,VALID,23.8963,VALID,113,VALID,0.770703,
2011-09-26, 02:57:04,VALID,998.6,VALID,0,VALID,85.467,VALID,0,VALID,23.8573,VALID,129,VALID,1.0543,
2011-09-26, 02:58:04,VALID,998.554,VALID,0,VALID,84.9558,VALID,0,VALID,23.8573,VALID,117,VALID,0.915234,
2011-09-26, 02:59:04,VALID,998.563,VALID,0,VALID,85.0626,VALID,0,VALID,23.8963,VALID,134,VALID,1.29609,
2011-09-26, 03:00:04,VALID,998.525,VALID,0,VALID,85.0626,VALID,0,VALID,23.9354,VALID,95,VALID,1.52031,
2011-09-26, 03:01:04,VALID,998.595,VALID,0,VALID,85.0932,VALID,0,VALID,23.9744,VALID,89,VALID,1.18906,
2011-09-26, 03:02:04,VALID,998.576,VALID,0,VALID,85.2534,VALID,0,VALID,23.914,VALID,79,VALID,1.15781,
2011-09-26, 03:03:04,VALID,998.591,VALID,0,VALID,85.322,VALID,0,VALID,23.8378,VALID,77,VALID,0.296094,
2011-09-26, 03:04:04,VALID,998.591,VALID,0,VALID,85.9858,VALID,0,VALID,23.7597,VALID,96,VALID,1.28984,
2011-09-26, 03:05:04,VALID,998.585,VALID,0,VALID,86.3368,VALID,0,VALID,23.7793,VALID,96,VALID,1.11992,
2011-09-26, 03:06:04,VALID,998.574,VALID,0,VALID,86.0316,VALID,0,VALID,23.8183,VALID,111,VALID,1.10078,
2011-09-26, 03:07:04,VALID,998.61,VALID,0,VALID,85.7264,VALID,0,VALID,23.8183,VALID,105,VALID,0.821484,
2011-09-26, 03:08:04,VALID,998.585,VALID,0,VALID,85.5891,VALID,0,VALID,23.7793,VALID,105,VALID,0.758203,
2011-09-26, 03:09:04,VALID,998.627,VALID,0,VALID,85.8256,VALID,0,VALID,23.7402,VALID,85,VALID,0.856641,
2011-09-26, 03:10:04,VALID,998.664,VALID,0,VALID,86.2452,VALID,0,VALID,23.6622,VALID,108,VALID,1.58555,
2011-09-26, 03:11:04,VALID,998.665,VALID,0,VALID,86.6343,VALID,0,VALID,23.5841,VALID,95,VALID,1.26758,
2011-09-26, 03:12:04,VALID,998.635,VALID,0,VALID,87.0006,VALID,0,VALID,23.5061,VALID,82,VALID,1.12578,
2011-09-26, 03:13:04,VALID,998.633,VALID,0,VALID,87.382,VALID,0,VALID,23.4653,VALID,73,VALID,1.32773,
2011-09-26, 03:14:04,VALID,998.707,VALID,0,VALID,87.5804,VALID,0,VALID,23.4671,VALID,97,VALID,1.02031,
2011-09-26, 03:15:04,VALID,998.669,VALID,0,VALID,87.2066,VALID,0,VALID,23.4671,VALID,131,VALID,1.80938,
2011-09-26, 03:16:04,VALID,998.703,VALID,0,VALID,86.0163,VALID,0,VALID,23.5841,VALID,126,VALID,1.55234,
2011-09-26, 03:17:04,VALID,998.702,VALID,0,VALID,84.5362,VALID,0,VALID,23.8165,VALID,115,VALID,0.751172,
2011-09-26, 03:18:04,VALID,998.7,VALID,0,VALID,83.8648,VALID,0,VALID,23.8945,VALID,116,VALID,0.677344,
2011-09-26, 03:19:04,VALID,998.738,VALID,0,VALID,83.5901,VALID,0,VALID,23.9744,VALID,121,VALID,0.737891,
2011-09-26, 03:20:04,VALID,998.704,VALID,0,VALID,83.14,VALID,0,VALID,24.0348,VALID,143,VALID,1.40742,
2011-09-26, 03:21:04,VALID,998.662,VALID,0,VALID,82.3617,VALID,0,VALID,24.072,VALID,187,VALID,0.503125,
2011-09-26, 03:22:04,VALID,998.643,VALID,0,VALID,82.2092,VALID,0,VALID,24.15,VALID,110,VALID,1.44219,
2011-09-26, 03:23:04,VALID,998.664,VALID,0,VALID,82.1786,VALID,0,VALID,24.2086,VALID,92,VALID,1.67148,
2011-09-26, 03:24:04,VALID,998.68,VALID,0,VALID,82.1557,VALID,0,VALID,24.2086,VALID,122,VALID,1.49961,
2011-09-26, 03:25:04,VALID,998.703,VALID,0,VALID,82.2702,VALID,0,VALID,24.2086,VALID,108,VALID,1.75391,
2011-09-26, 03:26:04,VALID,998.64,VALID,0,VALID,82.1939,VALID,0,VALID,24.2476,VALID,109,VALID,1.03828,
2011-09-26, 03:27:04,VALID,998.708,VALID,0,VALID,82.4609,VALID,0,VALID,24.2476,VALID,114,VALID,1.01875,
2011-09-26, 03:28:04,VALID,998.715,VALID,0,VALID,82.7814,VALID,0,VALID,24.1696,VALID,120,VALID,1.03867,
2011-09-26, 03:29:04,VALID,998.7,VALID,0,VALID,83.4604,VALID,0,VALID,24.0525,VALID,103,VALID,1.32695,
2011-09-26, 03:30:04,VALID,998.72,VALID,0,VALID,83.9869,VALID,0,VALID,23.9549,VALID,94,VALID,1.12812,
2011-09-26, 03:31:04,VALID,998.73,VALID,0,VALID,84.3531,VALID,0,VALID,23.9762,VALID,102,VALID,1.50156,
2011-09-26, 03:32:04,VALID,998.719,VALID,0,VALID,84.8109,VALID,0,VALID,23.8963,VALID,101,VALID,1.24805,
2011-09-26, 03:33:04,VALID,998.698,VALID,0,VALID,84.788,VALID,0,VALID,23.8573,VALID,96,VALID,1.54375,
2011-09-26, 03:34:04,VALID,998.726,VALID,0,VALID,85.0855,VALID,0,VALID,23.7988,VALID,107,VALID,1.19219,
2011-09-26, 03:35:04,VALID,998.684,VALID,0,VALID,84.4141,VALID,0,VALID,23.7597,VALID,112,VALID,1.46055,
2011-09-26, 03:36:04,VALID,998.677,VALID,0,VALID,84.8719,VALID,0,VALID,23.8573,VALID,90,VALID,1.37734,
2011-09-26, 03:37:04,VALID,998.665,VALID,0,VALID,85.0397,VALID,0,VALID,23.8378,VALID,78,VALID,1.16836,
2011-09-26, 03:38:04,VALID,998.69,VALID,0,VALID,85.7951,VALID,0,VALID,23.7012,VALID,74,VALID,1.33164,
2011-09-26, 03:39:04,VALID,998.728,VALID,0,VALID,86.1918,VALID,0,VALID,23.5451,VALID,99,VALID,0.914063,
2011-09-26, 03:40:04,VALID,998.738,VALID,0,VALID,86.9014,VALID,0,VALID,23.428,VALID,103,VALID,0.871484,
2011-09-26, 03:41:04,VALID,998.691,VALID,0,VALID,87.4431,VALID,0,VALID,23.35,VALID,103,VALID,0.266797,
2011-09-26, 03:42:04,VALID,998.691,VALID,0,VALID,87.6186,VALID,0,VALID,23.2915,VALID,103,VALID,0.000390625,
2011-09-26, 03:43:04,VALID,998.752,VALID,0,VALID,87.6949,VALID,0,VALID,23.2134,VALID,103,VALID,0,
2011-09-26, 03:44:04,VALID,998.722,VALID,0,VALID,87.8932,VALID,0,VALID,23.1549,VALID,103,VALID,0.000390625,
2011-09-26, 03:45:04,VALID,998.72,VALID,0,VALID,88.2289,VALID,0,VALID,23.1159,VALID,103,VALID,0.442578,
2011-09-26, 03:46:04,VALID,998.737,VALID,0,VALID,88.5799,VALID,0,VALID,23.0591,VALID,103,VALID,0.484766,